EN

Hourly Weather Ablon-sur-Seine

Today, 1 December, Tuesday

Time Temperature Precipitation Wind Pressure Humidity
00:00 +7°C° 0.3 mm 5 mps 758 mmHg 89%
01:00 +7°C° 0.4 mm 5 mps 758 mmHg 86%
02:00 +7°C° 0.4 mm 5 mps 757 mmHg 83%
03:00 +8°C° 0.4 mm 5 mps 757 mmHg 80%
04:00 +7°C° 0 mm 5 mps 757 mmHg 78%
05:00 +6°C° 0 mm 5 mps 757 mmHg 76%
06:00 +5°C° 0 mm 5 mps 758 mmHg 74%
07:00 +5°C° 0 mm 5 mps 758 mmHg 74%
08:00 +5°C° 0 mm 5 mps 758 mmHg 75%
09:00 +5°C° 0 mm 5 mps 758 mmHg 75%
10:00 +5°C° 0 mm 6 mps 758 mmHg 73%
11:00 +7°C° 0 mm 6 mps 758 mmHg 70%
12:00 +8°C° 0 mm 7 mps 758 mmHg 68%
13:00 +8°C° 0 mm 6 mps 757 mmHg 67%
14:00 +8°C° 0 mm 6 mps 757 mmHg 66%
15:00 +8°C° 0 mm 6 mps 757 mmHg 65%
16:00 +7°C° 0 mm 6 mps 757 mmHg 67%
17:00 +7°C° 0 mm 5 mps 757 mmHg 69%
18:00 +6°C° 0 mm 5 mps 757 mmHg 71%
19:00 +6°C° 0 mm 5 mps 757 mmHg 72%
20:00 +6°C° 0 mm 5 mps 757 mmHg 74%
21:00 +5°C° 0 mm 5 mps 757 mmHg 75%
22:00 +5°C° 0 mm 4 mps 757 mmHg 74%
23:00 +5°C° 0 mm 4 mps 757 mmHg 73%

Tomorrow, 2 December, Wednesday

Time Temperature Precipitation Wind Pressure Humidity
00:00 +5°C° 0 mm 4 mps 757 mmHg 73%
01:00 +5°C° 0.1 mm 4 mps 757 mmHg 77%
02:00 +6°C° 0.1 mm 4 mps 757 mmHg 81%
03:00 +6°C° 0.1 mm 4 mps 756 mmHg 86%
04:00 +7°C° 0 mm 3 mps 756 mmHg 87%
05:00 +7°C° 0 mm 3 mps 756 mmHg 89%
06:00 +7°C° 0 mm 3 mps 756 mmHg 90%
07:00 +7°C° 0 mm 2 mps 756 mmHg 89%
08:00 +7°C° 0 mm 2 mps 756 mmHg 88%
09:00 +7°C° 0 mm 2 mps 756 mmHg 87%
10:00 +7°C° 0 mm 2 mps 756 mmHg 84%
11:00 +7°C° 0 mm 2 mps 756 mmHg 80%
12:00 +9°C° 0 mm 1 mps 756 mmHg 77%
13:00 +7°C° 0 mm 2 mps 755 mmHg 76%
14:00 +7°C° 0 mm 2 mps 755 mmHg 75%
15:00 +7°C° 0 mm 2 mps 755 mmHg 74%
16:00 +8°C° 0 mm 1 mps 755 mmHg 76%
17:00 +7°C° 0 mm 1 mps 755 mmHg 78%
18:00 +6°C° 0 mm 0 mps 754 mmHg 80%
19:00 +5°C° 0 mm 0 mps 754 mmHg 81%
20:00 +6°C° 0 mm 1 mps 754 mmHg 83%
21:00 +6°C° 0 mm 1 mps 754 mmHg 84%
22:00 +6°C° 0 mm 1 mps 754 mmHg 85%
23:00 +6°C° 0 mm 1 mps 753 mmHg 86%

Day after tomorrow, 3 December, Thursday

Time Temperature Precipitation Wind Pressure Humidity
00:00 +6°C° 0 mm 1 mps 753 mmHg 87%
01:00 +5°C° 0 mm 2 mps 752 mmHg 87%
02:00 +5°C° 0 mm 2 mps 751 mmHg 87%
03:00 +5°C° 0 mm 2 mps 750 mmHg 88%
04:00 +4°C° 0 mm 3 mps 750 mmHg 87%
05:00 +4°C° 0 mm 3 mps 749 mmHg 86%
06:00 +4°C° 0 mm 3 mps 749 mmHg 85%
07:00 +4°C° 0.4 mm 3 mps 748 mmHg 86%
08:00 +4°C° 0.4 mm 3 mps 748 mmHg 88%
09:00 +4°C° 0.4 mm 3 mps 747 mmHg 90%
10:00 +5°C° 0.1 mm 3 mps 746 mmHg 88%
11:00 +5°C° 0.1 mm 3 mps 745 mmHg 85%
12:00 +5°C° 0.1 mm 4 mps 745 mmHg 83%
13:00 +6°C° 0.1 mm 4 mps 744 mmHg 82%
14:00 +6°C° 0.1 mm 4 mps 743 mmHg 81%
15:00 +6°C° 0.1 mm 4 mps 742 mmHg 80%
16:00 +6°C° 0.4 mm 4 mps 741 mmHg 81%
17:00 +5°C° 0.4 mm 4 mps 740 mmHg 82%
18:00 +5°C° 0.4 mm 4 mps 739 mmHg 83%
19:00 +5°C° 0.1 mm 4 mps 738 mmHg 84%
20:00 +5°C° 0.1 mm 4 mps 737 mmHg 85%
21:00 +5°C° 0.1 mm 5 mps 736 mmHg 86%
22:00 +5°C° 0.3 mm 5 mps 735 mmHg 86%
23:00 +5°C° 0.3 mm 5 mps 734 mmHg 87%

4 December, Friday

Time Temperature Precipitation Wind Pressure Humidity
00:00 +4°C° 0.3 mm 6 mps 733 mmHg 88%
01:00 +4°C° 0.6 mm 6 mps 732 mmHg 87%
02:00 +5°C° 0.6 mm 5 mps 731 mmHg 86%
03:00 +6°C° 0.6 mm 5 mps 730 mmHg 85%
04:00 +5°C° 0.1 mm 5 mps 729 mmHg 85%
05:00 +5°C° 0.1 mm 4 mps 729 mmHg 85%
06:00 +5°C° 0.1 mm 4 mps 728 mmHg 85%
07:00 +5°C° 1.7 mm 4 mps 728 mmHg 87%
08:00 +5°C° 1.7 mm 3 mps 728 mmHg 89%
09:00 +4°C° 1.7 mm 3 mps 727 mmHg 91%
10:00 +5°C° 1.2 mm 3 mps 727 mmHg 89%
11:00 +5°C° 1.2 mm 3 mps 727 mmHg 88%
12:00 +5°C° 1.2 mm 4 mps 727 mmHg 86%
13:00 +3°C° 1.3 mm 5 mps 728 mmHg 88%
14:00 +3°C° 1.3 mm 6 mps 728 mmHg 89%
15:00 +2°C° 1.3 mm 7 mps 728 mmHg 90%
16:00 +3°C° 0.5 mm 7 mps 729 mmHg 85%
17:00 +3°C° 0.5 mm 7 mps 730 mmHg 80%
18:00 +2°C° 0.5 mm 8 mps 730 mmHg 75%
19:00 +2°C° 0 mm 7 mps 731 mmHg 75%
20:00 +2°C° 0 mm 7 mps 731 mmHg 75%
21:00 +1°C° 0 mm 6 mps 732 mmHg 75%
22:00 +1°C° 0 mm 6 mps 732 mmHg 77%
23:00 +1°C° 0 mm 6 mps 732 mmHg 78%

5 December, Saturday

Time Temperature Precipitation Wind Pressure Humidity
00:00 -1°C° 0 mm 6 mps 732 mmHg 80%
01:00 -1°C° 0.1 mm 6 mps 732 mmHg 83%
02:00 -1°C° 0.1 mm 6 mps 732 mmHg 85%
03:00 -1°C° 0.1 mm 6 mps 732 mmHg 88%
04:00 -1°C° 0.9 mm 6 mps 732 mmHg 90%
05:00 0°C° 0.9 mm 5 mps 732 mmHg 92%
06:00 +1°C° 0.9 mm 5 mps 733 mmHg 95%
07:00 +1°C° 0.5 mm 5 mps 733 mmHg 93%
08:00 +3°C° 0.5 mm 4 mps 733 mmHg 92%
09:00 +3°C° 0.5 mm 4 mps 734 mmHg 91%
10:00 +3°C° 0.5 mm 4 mps 734 mmHg 90%
11:00 +4°C° 0.5 mm 4 mps 734 mmHg 90%
12:00 +4°C° 0.5 mm 4 mps 734 mmHg 89%
13:00 +4°C° 0.3 mm 4 mps 734 mmHg 88%
14:00 +4°C° 0.3 mm 4 mps 735 mmHg 88%
15:00 +4°C° 0.3 mm 4 mps 735 mmHg 87%
16:00 +4°C° 0.3 mm 4 mps 735 mmHg 87%
17:00 +4°C° 0.3 mm 4 mps 735 mmHg 86%
18:00 +4°C° 0.3 mm 4 mps 736 mmHg 86%
19:00 +4°C° 0.1 mm 4 mps 736 mmHg 86%
20:00 +4°C° 0.1 mm 4 mps 736 mmHg 87%
21:00 +4°C° 0.1 mm 3 mps 736 mmHg 87%
22:00 +4°C° 0.1 mm 3 mps 737 mmHg 88%
23:00 +4°C° 0.1 mm 3 mps 737 mmHg 88%

6 December, Sunday

Time Temperature Precipitation Wind Pressure Humidity
00:00 +4°C° 0.1 mm 3 mps 737 mmHg 88%
01:00 +4°C° 0.1 mm 4 mps 737 mmHg 88%
02:00 +3°C° 0.1 mm 4 mps 737 mmHg 88%
03:00 +3°C° 0.1 mm 4 mps 737 mmHg 88%
04:00 +3°C° 0.1 mm 4 mps 737 mmHg 88%
05:00 +3°C° 0.1 mm 3 mps 737 mmHg 88%
06:00 +3°C° 0.1 mm 3 mps 738 mmHg 88%
07:00 +3°C° 0 mm 3 mps 738 mmHg 87%
08:00 +3°C° 0 mm 3 mps 738 mmHg 87%
09:00 +3°C° 0 mm 3 mps 739 mmHg 86%
10:00 +3°C° 0 mm 3 mps 739 mmHg 83%
11:00 +4°C° 0 mm 3 mps 739 mmHg 80%
12:00 +4°C° 0 mm 3 mps 739 mmHg 77%
13:00 +4°C° 1.1 mm 3 mps 740 mmHg 82%
14:00 +4°C° 1.1 mm 4 mps 740 mmHg 87%
15:00 +4°C° 1.1 mm 4 mps 740 mmHg 92%
16:00 +4°C° 0.6 mm 4 mps 740 mmHg 90%
17:00 +3°C° 0.6 mm 5 mps 741 mmHg 88%
18:00 +5°C° 0.6 mm 5 mps 741 mmHg 87%
19:00 +5°C° 0.1 mm 5 mps 741 mmHg 84%
20:00 +5°C° 0.1 mm 5 mps 742 mmHg 82%
21:00 +5°C° 0.1 mm 5 mps 742 mmHg 79%
22:00 +5°C° 0 mm 5 mps 742 mmHg 78%
23:00 +4°C° 0 mm 6 mps 742 mmHg 78%
Show more

We Need Your Consent

Meteoprog and our Service Providers may store and access personal data such as cookies, device identifiers or other similar technologies on your device and process such data to personalise content and ads, as well as provide social media features and to analyse the traffic.

  • Store and/or access information on your device

    Cookies, device identifiers or other information can be stored or accessed on your device for the purposes indicated above.

  • Personalised ads and content, ad and content measurement, audience insights, and products development

    Ads and content can be personalised based on a profile. More data can be added to better personalise ads and content. Ad and content performance can be measured. Insights about the audience who saw the ads and content can be derived. Such data can be used to develop or improve user’s experience, systems and software.

By clicking ‘I Agree’ you will allow the use of indicated cookies, device identifiers, web beacons or other similar technologies. Your settings can be changed in the browser on your device.

For certain purposes, legitimate interests may be relied on, rather than consent. You can read more about this in our Privacy and Cookie Policy.